Wind_Speed
40 38 36 34 33 32 31 29 27 26 25 25 24 23 23 23 23 24 24 24 24 24 24 25 25 26 27 29 30 32 34 35 36 36 36 36 35 35
42 41 39 37 35 34 33 31 29 27 25 25 24 23 23 22 23 23 23 24 24 25 25 25 24 25 26 27 28 29 31 31 33 34 35 34 34 33
45 43 41 40 38 36 34 32 31 28 26 25 24 23 23 22 22 23 24 24 24 25 25 25 25 25 25 26 27 28 29 29 30 31 32 32 33 32
48 46 44 42 40 38 36 33 32 30 27 25 24 23 23 22 22 22 23 23 24 24 24 25 25 26 25 25 26 27 27 27 28 28 29 30 31 32
51 49 47 45 42 40 37 34 32 30 28 25 23 22 22 22 22 22 22 23 24 24 25 25 25 25 25 25 25 25 25 26 26 27 27 27 28 30
53 50 48 46 44 42 38 35 33 31 29 26 24 23 21 21 21 21 22 22 23 24 24 24 23 23 24 24 24 24 24 24 24 25 26 27 27 28
54 52 49 47 44 42 39 36 33 31 29 27 24 23 21 21 20 20 20 21 22 23 23 23 22 22 22 22 22 22 22 22 23 23 24 25 26 28
56 53 51 48 45 43 40 37 35 32 30 28 25 24 22 21 20 19 19 19 20 20 21 21 21 20 20 20 20 21 21 21 21 21 22 23 23 24
59 55 53 49 46 43 41 38 35 33 30 28 26 24 22 21 20 19 19 19 19 20 20 20 19 20 20 20 20 20 19 19 18 18 18 19 19 20
59 57 54 51 47 44 42 38 35 33 31 28 26 24 22 20 19 19 19 19 19 19 19 19 19 18 18 19 18 18 18 18 17 17 17 17 16 16
56 56 55 52 49 45 42 38 36 33 31 29 27 24 22 20 19 19 18 18 19 19 19 19 20 19 18 18 18 17 17 16 16 15 15 15 15 15
50 53 54 52 50 47 42 39 36 33 31 29 26 24 22 21 20 19 18 18 19 19 18 18 18 19 18 17 17 16 15 15 14 14 13 13 12 12
44 48 51 51 50 47 43 40 37 33 30 28 26 24 22 21 20 19 19 19 19 19 18 17 17 17 16 16 16 15 15 14 14 13 12 12 12 12
40 44 47 49 48 46 43 40 37 33 30 28 25 23 22 21 20 19 19 19 19 19 18 18 18 17 17 17 17 16 15 14 13 13 12 12 12 12
37 42 44 46 46 45 43 41 37 33 30 28 25 23 22 21 20 20 20 20 19 19 19 18 18 18 18 17 17 16 15 14 13 12 12 12 12 13
36 40 42 45 45 44 42 40 36 33 30 28 26 24 22 22 21 20 20 19 19 19 19 19 19 18 18 17 16 16 15 14 13 13 13 13 14 15
35 39 41 43 44 42 40 38 35 32 30 28 25 23 23 22 21 20 20 20 20 20 20 20 20 19 18 17 16 15 14 14 14 14 15 15 17 18
34 37 38 40 42 40 38 36 33 31 29 28 26 24 23 22 21 21 21 21 21 21 21 21 21 20 18 17 16 15 15 15 15 16 17 18 20 21
35 36 37 39 40 39 36 34 32 30 28 27 26 25 23 23 22 22 22 22 22 22 22 21 20 19 18 17 16 16 16 16 17 18 20 21 22 24
36 37 37 37 38 36 34 33 31 29 29 27 26 26 25 25 25 24 23 23 22 22 21 20 19 19 18 17 17 17 18 18 19 21 22 24 25 27
37 37 37 37 37 35 34 33 31 30 29 28 27 27 27 26 25 24 23 23 22 21 20 19 19 18 18 17 18 18 19 21 22 23 25 27 28 29
37 37 35 35 35 34 33 32 30 30 29 29 28 28 27 26 25 24 23 22 22 21 19 19 18 18 18 19 19 20 21 23 24 26 27 28 29 31
34 34 33 34 34 32 32 32 31 31 30 30 29 28 27 26 25 24 23 22 21 20 19 19 19 19 19 20 21 22 24 25 27 28 29 30 32 33
Wind_Direction
265 266 268 270 272 275 278 280 283 284 287 286 283 277 270 264 258 251 249 248 246 245 244 244 244 243 241 240 240 239 240 241 242 242 244 245 247 248
262 264 265 267 270 273 275 277 280 282 284 283 281 277 270 265 257 251 248 246 244 243 243 243 243 242 240 240 240 242 242 242 241 241 242 244 245 247
259 260 262 264 267 269 272 274 277 279 279 280 279 275 268 264 257 252 247 245 243 243 243 242 242 243 243 243 242 242 243 242 241 241 242 244 244 244
255 256 258 260 263 265 267 270 273 275 276 277 276 273 267 262 256 251 246 243 243 244 244 243 244 245 245 245 244 243 243 242 243 244 244 244 244 242
252 253 254 256 258 260 262 265 267 270 272 273 273 269 265 259 254 250 247 245 242 243 244 244 244 243 244 246 246 245 244 244 244 244 244 244 245 245
249 249 250 251 253 256 257 259 262 265 267 269 268 266 262 259 255 251 248 245 243 243 243 243 244 243 243 244 244 245 244 242 243 243 243 244 245 245
246 245 246 247 248 250 252 253 256 260 262 264 264 261 259 258 255 250 248 247 245 242 242 241 242 243 243 244 243 244 244 244 244 243 243 245 246 247
243 241 242 243 244 246 247 248 251 255 258 260 260 257 256 255 254 250 248 247 243 239 239 238 240 241 241 241 241 241 242 242 243 245 245 245 245 244
240 238 238 239 240 241 242 245 247 250 252 254 255 254 252 252 252 249 247 245 241 239 239 238 239 241 239 238 239 240 239 238 239 240 242 242 241 241
236 235 234 234 235 236 239 240 241 244 247 249 250 249 249 249 247 245 243 243 242 240 239 240 240 240 237 235 235 236 236 236 236 236 235 236 237 238
231 230 230 230 230 232 234 235 236 239 242 244 244 245 243 243 244 242 241 241 240 240 240 242 240 235 233 232 232 230 229 228 227 227 227 230 233 237
225 224 224 225 226 227 228 230 231 234 236 237 239 240 240 241 240 237 235 235 236 237 236 236 232 228 226 223 219 218 218 218 218 219 222 227 232 236
218 217 217 218 220 222 224 224 226 228 231 234 236 236 236 236 235 231 228 229 231 231 228 226 222 218 216 214 211 210 210 210 212 218 223 229 235 239
212 209 210 212 214 217 218 219 221 224 227 229 230 231 233 231 230 228 225 224 224 226 224 222 217 212 210 209 208 206 206 208 214 220 226 232 238 244
203 201 204 206 208 211 213 215 217 219 222 223 224 226 227 227 228 224 221 219 220 218 216 213 208 205 204 204 203 203 206 212 218 225 233 240 247 253
197 197 199 201 203 205 207 209 212 215 217 218 220 221 222 220 218 217 217 214 211 208 205 202 200 200 199 201 203 206 211 217 225 235 243 250 257 263
192 191 193 196 197 198 201 204 207 210 212 213 215 216 214 211 210 210 208 205 203 201 198 197 197 199 201 204 207 211 218 226 235 246 254 261 267 271
185 183 186 189 191 191 194 198 202 205 206 208 209 208 204 203 202 200 198 198 198 197 195 195 197 200 203 207 213 220 228 237 246 255 262 268 273 276
177 176 178 180 184 186 189 192 195 197 199 201 201 200 198 198 197 195 195 195 195 194 194 196 199 204 208 214 222 230 239 248 256 263 269 274 278 281
172 169 171 174 177 181 184 186 188 191 193 194 194 193 194 194 193 192 192 192 192 192 195 198 203 209 215 223 232 241 249 257 264 270 274 278 281 284
166 165 167 171 174 177 181 183 185 187 187 187 187 189 188 187 187 188 188 189 191 194 198 203 210 217 225 234 243 251 258 264 270 274 278 281 284 286
166 164 166 170 174 176 178 180 182 181 182 183 184 184 184 185 186 186 187 191 195 200 206 212 220 227 235 244 252 259 264 269 274 278 281 284 286 288
163 164 166 168 172 174 175 175 177 178 181 182 181 182 183 184 185 188 192 196 201 208 214 221 229 237 245 253 260 265 270 275 279 282 285 287 288 290
Height
5764 5765 5767 5767 5768 5769 5769 5769 5769 5768 5766 5763 5761 5760 5760 5760 5760 5761 5763 5764 5766 5768 5770 5773 5775 5777 5780 5783 5785 5788 5791 5794 5797 5800 5803 5806 5809 5812
5752 5755 5757 5758 5759 5760 5761 5761 5761 5761 5759 5757 5755 5754 5753 5754 5754 5755 5757 5758 5760 5763 5765 5767 5769 5771 5773 5776 5778 5781 5784 5786 5789 5792 5795 5798 5801 5803
5740 5743 5746 5748 5750 5751 5752 5753 5753 5753 5753 5751 5749 5748 5748 5748 5748 5749 5751 5753 5754 5756 5759 5761 5763 5765 5767 5769 5771 5774 5776 5779 5782 5784 5787 5790 5792 5795
5727 5730 5734 5737 5739 5742 5743 5744 5745 5745 5745 5744 5743 5742 5742 5742 5743 5744 5745 5746 5748 5750 5753 5755 5757 5759 5761 5763 5765 5767 5770 5772 5775 5777 5780 5782 5785 5787
5712 5717 5721 5725 5729 5731 5734 5735 5736 5737 5737 5737 5736 5736 5736 5736 5737 5738 5739 5741 5743 5745 5747 5749 5751 5753 5755 5757 5759 5761 5763 5766 5768 5770 5772 5775 5777 5779
5697 5702 5708 5712 5717 5720 5724 5726 5728 5729 5730 5730 5730 5730 5730 5730 5731 5732 5733 5735 5737 5739 5741 5743 5745 5747 5749 5751 5753 5755 5757 5759 5761 5763 5765 5768 5770 5772
5680 5687 5694 5699 5704 5709 5713 5716 5718 5720 5722 5723 5723 5724 5724 5725 5726 5726 5728 5729 5731 5733 5735 5737 5739 5741 5743 5745 5747 5749 5751 5753 5755 5757 5759 5761 5763 5765
5663 5671 5679 5685 5691 5697 5702 5706 5709 5712 5714 5715 5716 5717 5718 5719 5720 5721 5722 5724 5725 5727 5729 5732 5734 5735 5737 5739 5741 5744 5745 5747 5749 5751 5752 5754 5756 5758
5645 5654 5663 5671 5678 5684 5690 5695 5699 5702 5706 5708 5709 5711 5712 5713 5714 5715 5717 5718 5720 5722 5724 5726 5728 5730 5732 5734 5736 5738 5740 5742 5744 5745 5747 5748 5750 5752
5626 5636 5647 5656 5665 5672 5679 5684 5689 5693 5697 5700 5702 5704 5706 5707 5709 5710 5711 5713 5715 5717 5719 5721 5723 5725 5727 5729 5731 5733 5735 5737 5739 5740 5742 5744 5745 5747
5607 5619 5630 5641 5651 5660 5667 5674 5680 5684 5689 5692 5695 5697 5699 5701 5703 5704 5706 5708 5709 5711 5714 5716 5718 5720 5722 5724 5726 5728 5730 5732 5734 5736 5738 5739 5741 5742
5591 5603 5615 5626 5637 5647 5656 5663 5670 5676 5680 5684 5688 5690 5693 5695 5697 5699 5701 5703 5705 5707 5709 5711 5713 5715 5717 5720 5722 5724 5727 5729 5731 5733 5734 5736 5737 5738
5577 5588 5600 5612 5625 5635 5645 5653 5660 5667 5672 5677 5680 5683 5686 5688 5691 5693 5695 5698 5700 5702 5704 5707 5709 5712 5714 5716 5719 5721 5724 5726 5728 5729 5731 5733 5734 5735
5565 5576 5588 5600 5613 5624 5634 5643 5651 5658 5664 5669 5673 5676 5679 5682 5685 5688 5690 5693 5696 5698 5700 5703 5705 5708 5711 5713 5716 5718 5721 5723 5725 5726 5728 5729 5730 5731
5556 5567 5579 5591 5603 5614 5624 5634 5643 5650 5657 5662 5666 5670 5674 5677 5680 5682 5685 5688 5691 5694 5697 5699 5702 5705 5708 5711 5713 5716 5718 5720 5722 5723 5725 5726 5726 5727
5549 5559 5570 5582 5594 5605 5616 5626 5635 5643 5649 5655 5660 5664 5668 5671 5674 5678 5681 5684 5687 5690 5693 5697 5700 5703 5706 5708 5711 5713 5715 5717 5719 5720 5721 5722 5722 5722
5543 5553 5564 5575 5587 5598 5609 5619 5628 5636 5643 5648 5654 5658 5662 5666 5670 5673 5677 5680 5684 5687 5691 5694 5697 5701 5703 5706 5708 5710 5712 5714 5715 5716 5717 5717 5717 5717
5538 5548 5559 5570 5582 5593 5604 5614 5622 5630 5637 5643 5648 5653 5657 5662 5666 5669 5673 5677 5681 5685 5688 5692 5695 5698 5701 5703 5706 5707 5709 5710 5711 5712 5712 5712 5711 5711
5537 5547 5557 5568 5579 5590 5600 5609 5618 5625 5632 5638 5643 5648 5653 5658 5662 5667 5671 5675 5678 5682 5686 5690 5693 5696 5698 5700 5702 5704 5705 5706 5706 5706 5706 5705 5705 5704
5537 5547 5557 5567 5578 5589 5598 5606 5614 5621 5628 5634 5639 5645 5650 5655 5660 5664 5668 5672 5676 5680 5684 5687 5690 5693 5695 5697 5698 5699 5700 5700 5700 5700 5699 5698 5697 5696
5539 5549 5559 5569 5578 5588 5596 5604 5612 5618 5625 5631 5637 5643 5648 5652 5657 5662 5666 5670 5674 5678 5681 5684 5687 5689 5691 5692 5693 5694 5694 5694 5693 5693 5692 5690 5688 5686
5543 5552 5561 5570 5579 5587 5596 5603 5610 5617 5623 5630 5635 5641 5646 5651 5655 5660 5664 5668 5672 5675 5678 5681 5683 5684 5686 5687 5687 5688 5688 5687 5686 5685 5683 5681 5679 5677
5547 5556 5564 5572 5581 5588 5596 5603 5610 5616 5623 5629 5634 5639 5644 5649 5654 5658 5662 5666 5669 5672 5675 5677 5678 5680 5681 5681 5681 5681 5680 5679 5678 5676 5674 5672 5669 5667